User: anonymous   Login
Location: Mason Neck State Park
(38.6428°N, 77.1981°W)
Time: 06:54:10
(UTC-05:00)
Language:

Cosmos 1400 Rocket - Orbit

View from above orbital plane
View from above orbital plane
View from above satellite
View from above satellite

Ground track
Ground track

The orbit data is extracted from the following two-line orbital elements,

1 13403U 82079B   16342.17210337  .00000898  00000-0  58564-4 0  9994
2 13403  81.1692 129.2479 0033939 189.7938 170.2628 15.06431872867819
Epoch (UTC): 07 December 2016 04:07:49
Eccentricity: 0.0033939
inclination: 81.1692°
perigee height: 523 km
apogee height: 570 km
right ascension of ascending node: 129.2479°
argument of perigee: 189.7938°
revolutions per day: 15.06431872
mean anomaly at epoch: 170.2628°
orbit number at epoch: 86781

The dashed part of the orbit path shows where the satellite is in the earth's shadow,  

DLR